PLF014 EPKK-EPKK

Flight info

Callsign PLF014
Flight time N/A
Altitude 11000
Route LUXA5J LUXAR DCT VFR EPRZW EPRZY STAY01/0030 EPRZN EPRZK IFR DCT GOVRI GOVR4G
Aircraft C295/M-SDFGIRY/S

Departure

Time 2026-05-01 12:50
Airport Kraków John Paul II International Airport (EPKK)

Arrival

Time N/A
Airport Kraków John Paul II International Airport (EPKK)
Time Latitude Longitude Altitude Speed Heading
2026-05-01 12:28 50.07569 19.79209 786 ft 0 kts 347°
2026-05-01 12:43 50.07571 19.79209 786 ft 1 kts 347°
2026-05-01 12:44 50.07597 19.79200 787 ft 8 kts 351°
2026-05-01 12:44 50.07631 19.79280 786 ft 13 kts 77°
2026-05-01 12:44 50.07687 19.79686 786 ft 24 kts 78°
2026-05-01 12:45 50.07766 19.80257 787 ft 26 kts 77°
2026-05-01 12:45 50.07841 19.80337 787 ft 0 kts 347°
2026-05-01 12:48 50.07855 19.80332 787 ft 6 kts 348°
2026-05-01 12:48 50.07926 19.80308 787 ft 14 kts 348°
2026-05-01 12:48 50.08012 19.80225 786 ft 12 kts 282°
2026-05-01 12:49 50.08002 19.80118 787 ft 13 kts 257°
2026-05-01 12:49 50.08001 19.80110 787 ft 0 kts 257°
2026-05-01 12:49 50.07991 19.80040 786 ft 30 kts 258°
2026-05-01 12:49 50.07901 19.79397 786 ft 91 kts 258°
2026-05-01 12:50 50.07735 19.78172 786 ft 137 kts 258°
2026-05-01 12:50 50.07489 19.76701 1151 ft 140 kts 257°
2026-05-01 12:50 50.07232 19.75236 1599 ft 142 kts 258°
2026-05-01 12:50 50.07013 19.73761 2158 ft 138 kts 263°
2026-05-01 12:51 50.06830 19.72310 2801 ft 135 kts 265°
2026-05-01 12:51 50.06666 19.70871 3385 ft 134 kts 266°
2026-05-01 12:51 50.06376 19.68404 4099 ft 150 kts 262°
2026-05-01 12:52 50.06150 19.66792 4588 ft 155 kts 262°
2026-05-01 12:52 50.04805 19.64485 5593 ft 166 kts 185°
2026-05-01 12:52 50.03635 19.64471 6061 ft 170 kts 176°
2026-05-01 12:53 50.01243 19.65108 7018 ft 176 kts 165°
2026-05-01 12:53 50.00049 19.65562 7522 ft 177 kts 164°
2026-05-01 12:53 49.98839 19.66038 7955 ft 182 kts 163°
2026-05-01 12:54 49.97601 19.66508 8418 ft 184 kts 163°
2026-05-01 12:54 49.95091 19.67404 9492 ft 191 kts 162°
2026-05-01 12:54 49.93776 19.67858 10053 ft 195 kts 162°
2026-05-01 12:55 49.91097 19.68734 10966 ft 214 kts 161°
2026-05-01 12:55 49.89602 19.69498 10984 ft 235 kts 140°
2026-05-01 12:55 49.88558 19.71439 11004 ft 239 kts 104°
2026-05-01 12:56 49.88366 19.73995 11004 ft 244 kts 81°
2026-05-01 12:56 49.88627 19.76642 10995 ft 253 kts 73°
2026-05-01 12:56 49.89033 19.79304 10984 ft 254 kts 71°
2026-05-01 12:56 49.89463 19.81976 10989 ft 257 kts 71°
2026-05-01 12:57 49.89889 19.84672 10995 ft 259 kts 72°
2026-05-01 12:57 49.90667 19.90166 11000 ft 262 kts 73°
2026-05-01 12:57 49.91050 19.92941 10999 ft 264 kts 73°
2026-05-01 12:58 49.91428 19.95700 10988 ft 265 kts 73°
2026-05-01 12:58 49.91813 19.98503 10984 ft 266 kts 73°
2026-05-01 12:58 49.92193 20.01292 10978 ft 258 kts 73°
2026-05-01 12:59 49.92857 20.06663 10993 ft 250 kts 74°
2026-05-01 12:59 49.93175 20.09295 10988 ft 247 kts 74°
2026-05-01 12:59 49.93804 20.14518 10981 ft 244 kts 74°
2026-05-01 13:00 49.94421 20.19676 10991 ft 242 kts 74°
2026-05-01 13:00 49.94728 20.22245 10984 ft 242 kts 74°
2026-05-01 13:01 49.95341 20.27372 10981 ft 241 kts 74°
2026-05-01 13:01 49.95647 20.29930 10984 ft 241 kts 74°
2026-05-01 13:01 49.96254 20.35045 10983 ft 241 kts 74°
2026-05-01 13:02 49.96400 20.37599 10977 ft 244 kts 87°
2026-05-01 13:07 49.94067 20.92159 5003 ft 198 kts 91°
2026-05-01 13:07 49.93977 20.94258 5001 ft 194 kts 90°
2026-05-01 13:07 49.93899 20.96355 5015 ft 195 kts 90°
2026-05-01 13:08 49.93830 20.98461 4991 ft 196 kts 90°
2026-05-01 13:08 49.93757 21.00566 5002 ft 195 kts 90°
2026-05-01 13:08 49.93676 21.02647 5010 ft 196 kts 90°
2026-05-01 13:08 49.93581 21.04761 5007 ft 197 kts 91°
2026-05-01 13:09 49.93484 21.06881 4992 ft 196 kts 91°
2026-05-01 13:09 49.93387 21.08994 5005 ft 196 kts 90°
2026-05-01 13:09 49.93290 21.11104 5043 ft 196 kts 91°
2026-05-01 13:09 49.93186 21.13223 5046 ft 198 kts 91°
2026-05-01 13:10 49.93085 21.15358 5025 ft 199 kts 91°
2026-05-01 13:10 49.92977 21.17533 4915 ft 204 kts 91°
2026-05-01 13:10 49.92873 21.19747 4803 ft 208 kts 90°
2026-05-01 13:10 49.92891 21.21983 4667 ft 206 kts 75°
2026-05-01 13:11 49.93266 21.24118 4577 ft 204 kts 69°
2026-05-01 13:11 49.93763 21.26167 4537 ft 202 kts 64°
2026-05-01 13:11 49.94313 21.28156 4529 ft 199 kts 63°
2026-05-01 13:11 49.94866 21.30125 4528 ft 199 kts 63°
2026-05-01 13:12 49.95429 21.32085 4511 ft 199 kts 63°
2026-05-01 13:12 49.96008 21.34024 4501 ft 197 kts 62°
2026-05-01 13:12 49.96592 21.35952 4423 ft 198 kts 62°
2026-05-01 13:12 49.97190 21.37906 4314 ft 202 kts 62°
2026-05-01 13:13 49.97804 21.39892 4195 ft 206 kts 61°
2026-05-01 13:13 49.98405 21.41892 4049 ft 208 kts 63°
2026-05-01 13:13 49.98992 21.43959 3931 ft 210 kts 64°
2026-05-01 13:13 49.99572 21.46044 3802 ft 211 kts 64°
2026-05-01 13:14 50.00157 21.48146 3663 ft 212 kts 64°
2026-05-01 13:14 50.00744 21.50255 3597 ft 212 kts 64°
2026-05-01 13:14 50.01326 21.52359 3601 ft 211 kts 65°
2026-05-01 13:14 50.01902 21.54444 3590 ft 209 kts 64°
2026-05-01 13:15 50.02476 21.56518 3611 ft 208 kts 65°
2026-05-01 13:15 50.03040 21.58603 3568 ft 209 kts 65°
2026-05-01 13:15 50.03583 21.60717 3471 ft 210 kts 68°
2026-05-01 13:15 50.04090 21.62852 3400 ft 210 kts 66°
2026-05-01 13:16 50.04592 21.64992 3251 ft 211 kts 67°
2026-05-01 13:16 50.05116 21.67147 3078 ft 215 kts 68°
2026-05-01 13:16 50.05609 21.69346 2879 ft 220 kts 70°
2026-05-01 13:17 50.06385 21.76316 2364 ft 223 kts 95°
2026-05-01 13:17 50.06255 21.78710 2237 ft 220 kts 93°
2026-05-01 13:18 50.06267 21.83266 2240 ft 199 kts 86°
2026-05-01 13:18 50.06320 21.85383 2235 ft 195 kts 85°
2026-05-01 13:18 50.06373 21.87508 2117 ft 199 kts 85°
2026-05-01 13:18 50.06440 21.89685 1962 ft 203 kts 86°
2026-05-01 13:19 50.06500 21.91873 1850 ft 205 kts 83°
2026-05-01 13:19 50.06741 21.94036 1910 ft 196 kts 69°
2026-05-01 13:19 50.08702 21.95682 1880 ft 180 kts 337°
2026-05-01 13:20 50.09881 21.95001 1806 ft 179 kts 347°
2026-05-01 13:20 50.11043 21.95375 1972 ft 174 kts 41°
2026-05-01 13:20 50.11315 21.97051 2153 ft 175 kts 115°
2026-05-01 13:21 50.09930 22.00155 1952 ft 179 kts 94°
2026-05-01 13:21 50.09838 22.02103 1914 ft 183 kts 92°
2026-05-01 13:21 50.09792 22.04123 1748 ft 191 kts 89°
2026-05-01 13:21 50.09827 22.06192 1729 ft 190 kts 85°
2026-05-01 13:22 50.09901 22.08258 1640 ft 192 kts 85°
2026-05-01 13:22 50.10006 22.10320 1626 ft 189 kts 82°
2026-05-01 13:22 50.10168 22.12346 1637 ft 189 kts 79°
2026-05-01 13:22 50.10401 22.14321 1745 ft 185 kts 75°
2026-05-01 13:23 50.10762 22.16243 1879 ft 180 kts 69°
2026-05-01 13:23 50.11433 22.17696 1995 ft 165 kts 20°
2026-05-01 13:23 50.12475 22.17379 1917 ft 167 kts 307°
2026-05-01 13:23 50.12505 22.15520 1432 ft 188 kts 249°
2026-05-01 13:24 50.11959 22.13676 1585 ft 175 kts 247°
2026-05-01 13:24 50.11463 22.12130 1829 ft 154 kts 246°
2026-05-01 13:24 50.10981 22.10565 1477 ft 159 kts 252°
2026-05-01 13:25 50.10923 22.07316 958 ft 148 kts 274°
2026-05-01 13:25 50.10956 22.05774 807 ft 138 kts 270°
2026-05-01 13:25 50.10963 22.04349 713 ft 124 kts 272°